GFSGBSN_850_dewp_336.txt.gz
Dewpoint
0 3 4 4 4 4 3 5 5 7 7 7 7 7 7 6 6 5 4 3 0 -24 -24 -21 -18 -13 -12 -4 -5 -5 -5 -1 -2 -4 -5 -2 0 2 5 5 2 3 4 5 5 5 5
-12 -11 -5 -1 1 1 0 -1 3 3 6 6 6 6 7 6 6 6 4 4 2 -15 -24 -21 -16 -12 -12 -5 -5 -4 -1 -4 -4 -4 -3 -2 2 4 4 3 3 4 4 5 5 5 5
-11 -13 -16 -17 -18 -18 -13 -7 -6 0 2 4 6 5 6 6 6 5 4 4 2 -14 -24 -22 -17 -12 -2 -5 -5 -3 0 -2 -2 -2 -4 -3 -0 4 3 2 4 4 5 5 5 5 5
-7 -10 -13 -15 -18 -20 -21 -21 -19 -13 -7 -1 3 5 3 6 6 4 3 3 2 -17 -23 -22 -16 -13 -3 -5 -5 -3 -0 -0 2 1 2 4 4 3 3 4 4 4 4 6 4 5 4
-6 -6 -10 -13 -16 -19 -20 -22 -24 -23 -22 -19 -9 0 3 4 6 5 2 2 1 -21 -21 -22 -15 -11 -5 -6 -7 -3 2 2 3 4 4 4 3 2 4 5 5 4 5 3 5 4 3
-8 -6 -7 -11 -14 -17 -21 -23 -23 -25 -25 -24 -23 -19 -4 -1 6 6 3 1 -4 -21 -10 -21 -13 -8 -7 -7 -4 1 1 3 3 3 2 2 2 2 3 4 6 4 4 2 5 4 2
-8 -8 -7 -9 -12 -14 -17 -22 -24 -25 -27 -27 -25 -23 -21 -7 6 6 4 1 -0 -2 -5 -12 -8 -14 -10 -7 -6 -0 2 2 3 2 2 1 2 3 1 1 1 0 3 -1 -2 1 2
-6 -8 -9 -8 -11 -13 -16 -18 -22 -25 -26 -27 -27 -26 -23 -13 6 5 2 1 1 1 0 -7 -7 -9 -9 -9 -5 -0 -2 2 3 3 -1 -0 2 -2 -3 -3 -1 -0 -4 -3 -2 0 1
-4 -6 -9 -9 -12 -13 -15 -16 -20 -23 -25 -27 -28 -28 -25 -16 5 9 4 1 2 2 3 -3 -9 -13 -15 -11 -7 -5 -1 1 1 1 -0 1 -1 0 -0 -0 -1 -5 -4 -5 -4 -1 -2
-3 -3 -6 -10 -11 -12 -14 -15 -18 -22 -24 -25 -27 -28 -27 -20 5 9 6 5 3 -4 5 -2 -8 -14 -14 -11 -8 -6 -3 -1 -1 -0 -2 -2 -3 0 0 -2 -4 -3 -6 -6 -5 -3 -3
-3 -3 -3 -4 -7 -12 -14 -13 -17 -20 -23 -24 -26 -28 -27 -19 9 10 8 5 2 7 12 -3 -8 -14 -15 -13 -11 -7 -7 -2 -1 -2 -3 -1 -3 -3 -0 -3 -3 -2 -6 -6 -6 -4 -3
-3 -3 -4 -4 -5 -9 -10 -12 -17 -19 -21 -23 -24 -26 -27 -1 1 9 7 7 -0 8 10 -5 -12 -13 -15 -16 -13 -10 -8 -4 -4 -4 -3 -2 -6 -5 -2 -3 -2 -4 -4 -6 -6 -2 0
-3 -3 -4 -5 -6 -8 -11 -6 -14 -19 -22 -22 -23 -25 -28 -26 4 7 4 7 6 10 -1 -7 -10 -13 -13 -12 -13 -13 -7 -4 -4 -0 1 -3 -4 -6 -5 -1 -4 -3 -0 6 4 6 4
-3 -5 -5 -6 -7 -8 -8 -8 -10 -17 -22 -23 -23 -24 -26 -25 -0 7 6 8 10 5 -2 -10 -11 -12 -11 -12 -12 -13 -11 -6 -5 -5 -3 -1 -0 -5 -7 -3 -1 -3 -1 10 7 5 3
-5 -6 -5 -6 -10 -9 -8 -9 -11 -14 -20 -23 -24 -17 -11 -0 -15 7 10 10 9 3 -5 -6 -11 -10 -10 -11 -11 -11 -10 -10 -8 -6 -1 -2 -2 -7 -7 -6 -6 -3 -0 -2 2 3 4
-6 -7 -8 -9 -10 -12 -10 -9 -11 -13 -16 -19 -22 -13 -1 2 -4 8 9 9 5 0 -2 -10 -7 -9 -7 -9 -9 -8 -9 -10 -9 -8 -6 -4 -1 -6 -7 -7 -6 -3 -2 5 9 9 6
-6 -7 -7 -8 -9 -14 -14 -13 -11 -13 -15 -14 -8 -1 5 1 -2 8 9 7 4 0 -5 -6 -7 -7 -8 -8 -9 -9 -8 -10 -11 -9 -6 -5 2 -2 -6 -4 -2 -1 0 0 3 5 9
-5 -5 -6 -6 -8 -9 -12 -15 -15 -14 -14 -0 -1 -2 6 -4 4 3 5 2 2 2 0 -5 -5 -5 -7 -8 -8 -8 -7 -9 -12 -11 -5 -3 -2 2 -2 -5 -6 -4 -2 -1 12 6 4
-3 -4 -4 -5 -6 -8 -9 -10 -16 -15 -11 -4 -2 -4 5 3 4 2 -2 -2 -0 1 2 1 -2 -4 -5 -5 -6 -7 -8 -6 -11 -11 -4 -5 2 7 -0 -3 -5 -5 -4 5 7 3 4
-3 -2 -3 -4 -5 -7 -7 -9 -14 -16 -10 -6 -2 3 0 3 0 0 -1 -1 -2 -2 -1 -0 0 -2 -3 -3 -4 -5 -7 -4 -7 -9 -5 -3 -3 1 5 0 2 2 -4 6 6 8 5
-4 -3 -3 -3 -4 -5 -6 -8 -10 -16 -9 -6 -2 0 -1 4 3 1 1 -1 -1 -1 -2 0 2 -0 -3 -2 -2 -3 -5 -2 -4 -5 -5 -4 1 -0 -2 -4 -5 -5 -4 -1 5 1 1
-5 -5 -4 -4 -3 -4 -5 -7 -9 -13 -10 -2 0 -3 0 -1 -0 -0 0 0 1 1 -2 -1 4 3 0 -1 -1 1 -0 -4 -3 -4 -4 -4 1 -1 1 -4 -7 -8 -11 -5 -0 -2 -3
-4 -5 -6 -5 -3 -3 -5 -6 -8 -11 -13 -3 -4 -3 -2 -2 -3 -2 -1 -2 -2 -2 0 -0 -1 2 4 1 -0 -0 -0 -1 -2 -3 -1 -1 2 3 3 -3 -5 3 -4 -5 -4 -4 -3
-5 -5 -5 -5 -4 -4 -5 -6 -7 -10 -16 -3 -1 -0 -0 -0 -4 -5 -6 -4 -2 -4 -0 0 3 3 0 1 -0 -2 -3 -3 -4 -4 -2 -1 1 5 7 1 9 1 -4 -4 -3 -4 -3
-4 -5 -5 -5 -5 -4 -4 -5 -7 -8 -13 -12 -2 -0 -0 -0 -4 -4 -4 -0 -0 0 -1 -2 1 4 3 3 2 4 6 1 1 -5 -4 -2 1 10 10 5 1 -2 -4 -3 -3 -2 -4
-5 -5 -5 -5 -5 -4 -4 -5 -6 -7 -10 -15 -5 -2 -0 -1 -4 -5 -5 -2 -0 1 1 -0 3 4 2 2 7 7 7 2 2 -3 -5 -4 0 5 7 6 6 -2 -4 -5 -5 -0 -4
-5 -5 -5 -6 -5 -4 -5 -6 -6 -7 -8 -11 -6 -4 -1 0 -3 -3 -1 1 2 2 4 3 5 5 2 6 8 5 5 1 2 1 2 1 3 9 7 6 1 -5 -7 -8 -1 3 -6
-4 -5 -5 -5 -5 -5 -5 -5 -6 -6 -7 -8 -6 -5 -2 -1 -2 -2 -1 -2 -0 1 3 2 5 5 5 6 6 6 4 4 3 0 -0 2 4 8 6 8 8 -4 -7 -4 -1 -4 -5
-5 -6 -6 -6 -5 -5 -4 -5 -5 -6 -6 -6 -4 -5 -4 -2 -2 -1 -1 -1 -2 -2 -0 1 1 2 4 5 5 5 6 5 3 6 -1 3 1 5 4 6 -1 -3 -3 -4 -2 -5 -5

GFSGBSN_850_dewp_339.txt.gz
Dewpoint
-17 -13 -7 -3 -2 -1 -3 -4 -6 -7 -2 -2 5 6 6 6 5 5 5 4 3 1 -21 -22 -22 -16 -11 -9 -9 -5 -5 -4 1 -3 -3 -3 -3 -2 6 6 4 4 5 5 5 6 6
-19 -20 -20 -20 -20 -19 -17 -16 -16 -15 -12 -5 1 6 5 5 5 4 4 4 3 2 -20 -22 -22 -17 -11 -6 -5 -5 -3 -4 -4 -1 -2 -4 -2 0 5 5 2 4 5 5 5 5 5
-14 -19 -22 -22 -23 -24 -24 -24 -24 -22 -21 -18 -9 3 5 4 4 5 3 2 2 2 -20 -22 -21 -15 -12 -9 -6 -5 -1 -1 -3 -4 -3 -5 -3 -2 4 3 4 4 6 5 5 5 5
-13 -14 -18 -21 -23 -24 -25 -25 -26 -25 -25 -24 -22 -13 2 4 4 4 3 1 1 1 -21 -21 -21 -14 -12 -6 -7 -5 -3 -1 -0 -0 -1 -1 4 3 4 4 4 4 5 8 5 5 5
-13 -11 -13 -16 -20 -22 -23 -25 -26 -26 -27 -26 -26 -24 -18 -0 3 4 2 1 -1 -2 -22 -21 -19 -13 -3 -6 -6 -8 -3 1 1 3 4 4 2 2 3 5 6 5 7 6 6 5 5
-9 -11 -9 -12 -15 -18 -21 -22 -24 -26 -27 -28 -27 -27 -24 -22 -1 4 4 -0 -0 -6 -7 -19 -16 -9 -10 -6 -5 -1 -0 3 3 3 3 0 2 3 3 5 8 7 6 4 7 6 5
-5 -8 -11 -11 -13 -16 -19 -21 -22 -24 -25 -27 -28 -28 -27 -24 -11 5 4 0 -2 -1 -4 -5 -5 -13 -12 -7 -4 -1 2 2 3 3 4 2 4 5 4 3 3 3 4 3 5 4 5
-4 -6 -9 -11 -14 -17 -18 -21 -22 -22 -23 -25 -28 -29 -28 -25 -4 6 2 1 2 2 1 -5 -7 -6 -9 -9 -6 -4 0 1 3 5 3 3 4 2 1 0 1 1 -2 -2 3 3 3
-3 -5 -6 -10 -13 -15 -18 -20 -21 -22 -23 -24 -25 -28 -29 -25 4 10 5 3 3 -2 5 -1 -6 -8 -10 -11 -9 -4 -1 0 3 5 3 3 2 -0 1 0 -2 -3 -3 -4 -1 1 -1
-3 -4 -4 -6 -9 -13 -17 -18 -19 -21 -22 -23 -24 -26 -29 -22 5 9 6 5 1 -1 9 3 -4 -10 -12 -14 -9 -9 -2 -1 0 2 2 1 -1 1 1 0 -3 -1 -5 -4 -5 -3 -2
-3 -3 -4 -5 -5 -7 -11 -16 -18 -20 -21 -21 -23 -25 -28 -21 9 10 9 7 0 7 9 1 -6 -12 -15 -11 -10 -7 -3 -2 0 1 -3 2 -3 -3 -1 0 -2 -2 -4 -5 -4 -3 -3
-4 -4 -3 -4 -6 -8 -12 -16 -18 -20 -21 -22 -22 -23 -26 -18 -8 8 8 7 0 6 6 1 -12 -12 -13 -13 -13 -8 -6 -4 -2 -1 -3 -1 -6 -5 -2 -2 -2 -3 -3 -2 -4 -3 1
-3 -4 -4 -4 -6 -8 -11 -16 -18 -19 -21 -22 -23 -22 -24 -26 -4 -1 6 7 7 8 3 -3 -8 -10 -10 -10 -12 -6 -5 -3 -1 1 1 -1 -2 -5 -5 -1 -4 -3 1 6 5 4 3
-2 -4 -5 -6 -7 -10 -11 -15 -17 -20 -21 -23 -24 -24 -22 -25 -25 1 6 8 8 7 4 -2 -10 -9 -8 -10 -10 -10 -5 -2 -2 -2 2 2 2 -3 -5 -1 1 -1 2 6 6 6 4
-2 -4 -7 -6 -8 -11 -13 -15 -17 -20 -22 -23 -24 -24 -18 -10 -22 -0 9 7 7 7 1 -1 -6 -9 -8 -9 -7 -8 -7 -5 -2 -3 0 1 1 -6 -6 -5 -4 -2 1 0 3 5 5
-2 -4 -7 -8 -9 -12 -14 -15 -18 -20 -22 -23 -24 -15 -4 2 -4 6 8 8 8 4 1 -1 -3 -7 -6 -7 -7 -6 -5 -6 -7 -4 -4 -2 1 -5 -7 -7 -5 -2 -0 2 6 3 5
-3 -6 -7 -7 -8 -10 -13 -16 -18 -20 -22 -15 -10 2 4 1 -6 6 6 7 5 3 2 -4 -3 -1 -2 -4 -6 -6 -5 -6 -7 -7 -4 -2 3 -2 -4 -3 -1 -1 1 1 6 6 6
-5 -6 -6 -7 -7 -8 -9 -12 -15 -20 -19 -3 -0 1 4 1 7 5 5 3 1 2 2 3 -4 -2 -1 -2 -3 -4 -4 -4 -11 -9 -3 -2 2 2 -2 -4 -4 -1 0 2 4 2 5
-5 -5 -5 -6 -6 -7 -8 -9 -11 -17 -16 -12 0 -2 2 2 3 2 1 0 -1 0 1 3 4 -1 0 0 -0 -4 -2 -7 -11 -8 -3 -3 0 4 0 -1 -4 -4 -3 3 4 4 4
-3 -4 -4 -4 -5 -6 -7 -8 -9 -15 -13 -8 1 1 -2 4 2 3 3 1 0 -3 -1 -0 1 1 3 2 -1 -0 -1 -5 -9 -5 -6 -2 1 3 5 3 2 -3 -4 3 2 5 5
-2 -4 -3 -3 -4 -5 -6 -7 -9 -11 -13 -6 -0 -1 -0 1 2 3 2 2 2 -0 -1 -2 1 2 4 3 1 -0 -1 -1 -4 -5 -5 -2 0 -1 0 1 -0 -0 -2 4 2 2 3
-2 -4 -3 -3 -3 -4 -5 -6 -8 -9 -15 -6 -0 -1 -1 -1 -1 -0 2 1 2 1 1 1 1 2 5 4 3 4 3 3 -1 -3 -3 -2 1 -1 1 1 -2 -4 -2 2 2 1 -0
-2 -4 -4 -4 -4 -4 -4 -5 -7 -9 -14 -3 -3 -2 -2 -2 -2 -1 0 1 -1 -2 -1 -1 2 3 5 4 -0 -0 -1 -0 1 1 -1 0 1 2 2 0 -1 1 -4 -5 0 0 -1
-3 -4 -5 -5 -5 -5 -4 -5 -6 -8 -11 -5 -2 -1 -0 -1 -2 -3 -4 -4 -0 0 -1 -2 2 5 4 3 2 2 0 -0 -1 -1 -2 0 2 4 4 3 1 0 -3 -4 -2 -1 -2
-3 -4 -5 -5 -5 -5 -4 -4 -6 -7 -9 -14 -4 -2 -0 -1 -3 -4 -4 -2 -0 1 3 2 1 0 3 3 4 4 3 2 1 -1 -0 -0 3 5 3 5 3 1 -1 -2 -2 -2 -3
-4 -4 -5 -5 -5 -5 -5 -4 -5 -6 -7 -10 -15 -4 -2 0 -2 -2 -2 -0 2 3 3 2 4 3 3 5 2 5 7 4 1 -2 -3 -1 3 3 5 4 4 2 -2 -4 -4 1 -3
-4 -4 -5 -5 -5 -5 -5 -5 -5 -6 -6 -8 -12 -6 -3 -1 -3 -2 -2 0 0 2 3 3 2 5 4 4 5 4 5 3 3 0 -0 1 2 4 4 4 4 -1 -6 -7 -1 1 -1
-4 -5 -5 -5 -5 -5 -5 -4 -5 -6 -6 -7 -9 -9 -5 -1 -3 -4 -3 -1 -0 1 2 1 2 4 4 4 5 5 4 4 3 2 1 2 3 4 5 5 5 -2 -7 -3 -1 -3 -2
-4 -6 -5 -5 -5 -5 -5 -5 -5 -6 -6 -6 -8 -8 -5 -4 -3 -4 -3 -2 -1 -1 -1 0 2 1 3 5 4 5 4 3 4 4 0 2 3 4 3 4 1 -1 -5 -3 -4 -5 -1

GFSGBSN_850_dewp_342.txt.gz
Dewpoint
-22 -22 -22 -21 -20 -19 -19 -20 -20 -20 -19 -18 -13 -7 4 5 5 3 3 3 3 3 -1 -25 -21 -21 -12 -10 -8 -5 -5 -6 -2 1 -1 -2 -3 -3 -0 5 3 5 5 5 7 7 8
-20 -22 -23 -24 -24 -25 -25 -25 -25 -24 -24 -23 -20 -16 -0 4 3 3 3 2 1 2 1 -24 -21 -20 -13 -9 -6 -5 -3 -3 -4 0 1 0 -4 -3 1 5 3 4 5 5 6 6 7
-18 -20 -22 -23 -24 -24 -25 -26 -26 -26 -26 -25 -25 -23 -15 1 3 2 1 1 0 0 2 -23 -21 -20 -14 -11 -6 -5 -3 -1 -1 -5 -5 -5 -3 -2 -1 4 4 5 6 5 5 5 5
-15 -16 -17 -19 -21 -23 -24 -25 -26 -27 -27 -27 -26 -26 -24 -14 1 2 2 1 -1 -2 1 -21 -21 -18 -17 -12 -9 -7 -5 -2 -1 -1 -1 2 1 3 3 4 4 4 5 8 5 5 5
-13 -14 -16 -17 -19 -20 -21 -22 -24 -25 -27 -27 -28 -27 -26 -24 -15 -2 -1 -1 -5 -1 -5 -20 -21 -15 -14 -8 -7 -7 -6 -3 -1 -1 3 4 3 2 3 5 6 5 7 7 7 5 5
-7 -12 -15 -16 -18 -19 -20 -21 -22 -22 -24 -26 -28 -28 -27 -25 -24 -5 -3 -2 -3 -0 -13 -12 -15 -7 -13 -6 -6 -6 -2 1 2 3 3 1 1 2 3 6 9 7 6 4 7 6 6
-5 -8 -11 -15 -17 -19 -20 -21 -21 -22 -22 -23 -25 -28 -28 -27 -22 3 0 -1 -2 -0 -6 -8 -9 -8 -11 -8 -5 -1 2 3 3 3 4 2 4 5 4 3 4 5 5 6 3 5 6
-3 -6 -8 -12 -16 -18 -20 -21 -21 -22 -22 -23 -23 -25 -28 -28 -5 5 3 1 3 3 2 -4 -7 -5 -10 -8 -7 -5 -1 2 3 5 4 3 5 3 2 1 3 3 4 -3 2 5 5
-2 -5 -7 -9 -13 -17 -19 -20 -20 -21 -22 -23 -23 -24 -28 -27 6 8 6 6 5 -1 3 -4 -6 -9 -8 -9 -10 -6 -2 1 3 5 5 5 3 0 1 0 -2 -3 -3 -4 0 4 4
-2 -3 -6 -8 -10 -14 -16 -17 -18 -20 -21 -22 -22 -23 -26 -14 6 9 9 6 7 3 6 3 -1 -5 -9 -11 -11 -11 -3 -1 1 4 3 3 0 1 1 -0 -2 -2 -5 -4 -4 -1 1
-3 -3 -4 -5 -10 -12 -15 -16 -18 -19 -21 -22 -22 -23 -24 -28 8 9 6 8 4 7 -2 -3 -4 -8 -9 -12 -11 -11 -10 -1 1 1 -2 0 -4 -3 -2 -1 -3 -2 -4 -5 -5 -4 -4
-3 -3 -6 -5 -6 -11 -14 -16 -17 -19 -20 -22 -23 -23 -23 -26 -11 8 7 6 5 3 3 3 -11 -13 -10 -12 -12 -6 -2 -2 -2 -1 -2 -2 -5 -5 -2 -3 -2 -3 -3 -1 -2 -2 -0
-2 -3 -5 -6 -7 -9 -12 -15 -17 -19 -20 -22 -23 -24 -23 -24 -24 -12 6 6 4 3 1 0 -10 -11 -11 -10 -11 -7 -5 -3 -0 1 1 -1 -3 -5 -4 -2 -4 -2 1 5 2 4 2
-2 -2 -4 -6 -8 -8 -12 -15 -17 -18 -20 -22 -23 -24 -24 -23 -26 -21 1 7 5 3 5 1 -5 -9 -9 -10 -10 -7 -4 -3 -3 -1 1 1 1 -3 -6 -0 -1 -1 1 5 3 5 4
-2 -2 -3 -6 -7 -9 -13 -15 -17 -19 -20 -22 -23 -24 -24 -13 -14 -17 7 7 6 6 5 2 -2 -9 -8 -8 -9 -9 -4 -3 -2 -2 -0 3 1 -5 -6 -4 -3 -1 1 1 3 4 3
-2 -2 -2 -6 -8 -10 -12 -15 -17 -19 -21 -22 -24 -18 -14 -3 -1 -0 6 7 7 6 3 1 -4 -4 -7 -8 -7 -6 -6 -5 -3 -3 -4 -2 -0 -5 -7 -6 -4 -3 -1 2 4 4 4
-4 -2 -4 -7 -8 -9 -11 -13 -16 -19 -21 -20 -12 -1 2 1 -1 5 3 4 5 3 3 4 -3 -2 -2 -2 -4 -5 -5 -8 -6 -5 -3 -3 0 -2 -5 -4 -2 -2 1 3 3 4 5
-3 -4 -4 -7 -7 -8 -9 -11 -13 -17 -21 -11 -5 -1 5 5 2 5 4 5 1 -1 -1 2 3 -3 -2 0 0 -4 -4 -5 -7 -6 -2 -2 1 -1 -2 -4 -3 -2 -1 2 5 3 5
-2 -4 -5 -6 -7 -7 -8 -9 -10 -15 -20 -15 -2 -1 5 4 2 1 1 1 1 -1 -2 2 4 2 2 2 2 -1 -3 -7 -10 -5 -2 -3 0 3 -0 -1 -3 -4 -2 2 2 3 4
-1 -4 -5 -5 -5 -6 -7 -8 -9 -12 -18 -14 -0 -1 -0 4 4 3 3 3 1 -5 -1 -2 -0 -0 3 4 2 1 -1 -4 -5 -5 -4 -3 1 1 3 2 -1 -3 -4 1 2 4 3
-1 -3 -4 -5 -4 -5 -6 -7 -8 -10 -16 -10 -0 -2 -0 -1 1 -0 2 2 3 2 -1 -2 -0 1 2 5 3 0 0 -2 -4 -5 -4 -2 -1 0 1 2 -1 -3 -3 2 1 1 4
-0 -2 -3 -4 -3 -4 -4 -6 -7 -8 -13 -11 -1 -2 -2 -2 -2 -1 -0 2 1 -0 1 1 1 -0 1 5 3 3 2 3 1 -3 -3 -2 -1 -2 -2 -1 1 -0 -1 2 1 1 1
1 -1 -2 -4 -3 -3 -4 -5 -6 -8 -12 -4 -1 -1 -2 -2 -2 -3 -1 -2 -1 0 -1 -3 1 2 4 4 2 -0 1 0 0 1 -2 -1 0 2 1 0 1 1 -1 -1 0 0 -2
-0 -1 -2 -4 -3 -3 -4 -4 -5 -7 -9 -6 -2 -2 -0 -3 -2 -2 -3 -3 -1 -0 3 2 2 3 3 2 3 3 2 1 1 1 1 1 1 2 3 2 2 0 -2 -5 -3 -0 -0
-1 -1 -1 -3 -4 -4 -5 -4 -4 -6 -8 -11 -9 -3 -1 -1 -2 -3 -2 -2 -0 1 3 2 3 4 2 1 4 3 2 2 -0 0 0 -0 2 3 3 4 1 1 -1 -1 -2 -1 -2
-0 -0 -1 -4 -5 -5 -6 -5 -4 -6 -7 -8 -13 -4 -3 -1 -3 -2 -2 0 1 1 1 3 4 4 3 5 3 5 5 3 1 -1 -1 1 2 3 3 2 3 0 -3 -4 -4 0 0
0 0 -2 -4 -5 -5 -5 -5 -5 -6 -6 -7 -10 -10 -4 -2 -3 -3 -1 -1 -1 0 2 2 1 2 4 3 5 4 5 3 3 1 -0 2 3 2 3 3 3 -0 -2 -5 1 2 0
-0 -1 -3 -4 -5 -5 -5 -6 -6 -5 -5 -6 -8 -8 -5 -2 -4 -4 -4 -2 -1 0 2 0 0 3 3 4 4 5 3 4 3 1 1 1 3 3 3 2 3 -1 -5 -2 -2 -3 -1
-0 -2 -3 -4 -5 -5 -6 -6 -5 -5 -6 -6 -7 -9 -6 -4 -5 -3 -4 -5 -4 -3 -0 -0 1 1 2 3 4 4 4 3 3 4 0 2 1 2 3 3 0 -1 -6 -7 -4 -4 -1

GFSGBSN_850_dewp_345.txt.gz
Dewpoint
-22 -22 -23 -23 -23 -24 -24 -24 -24 -24 -24 -24 -23 -21 -18 -5 2 2 1 0 1 1 2 -5 -23 -21 -16 -10 -7 -5 -5 -5 -4 -3 1 -3 -2 -3 -0 4 4 5 5 6 7 8 8
-21 -21 -22 -23 -24 -24 -25 -25 -25 -25 -25 -25 -25 -24 -22 -16 -0 1 0 -1 -1 -1 1 1 -23 -21 -17 -10 -6 -5 -4 -5 -4 -1 1 0 -1 -4 -3 1 3 4 5 7 7 7 7
-19 -20 -21 -21 -22 -23 -24 -25 -25 -26 -26 -26 -26 -25 -25 -23 -16 -1 -0 0 -1 -2 -2 1 -22 -21 -17 -15 -6 -4 -4 -2 -1 -3 -5 -5 -4 -2 -0 3 4 5 6 5 5 6 6
-15 -17 -18 -19 -20 -21 -22 -23 -24 -25 -26 -26 -27 -26 -26 -25 -24 -15 -3 -3 -4 -3 -3 0 -21 -21 -19 -18 -15 -8 -7 -3 -0 -1 -2 2 2 -0 2 4 4 5 5 8 5 5 5
-11 -14 -15 -18 -19 -20 -21 -21 -22 -22 -23 -24 -26 -27 -27 -26 -25 -23 -18 -10 -4 -5 -1 -8 -21 -20 -17 -14 -11 -8 -8 -5 -5 -2 -1 3 3 2 4 5 5 5 6 7 6 5 5
-6 -9 -13 -16 -17 -19 -20 -21 -21 -22 -22 -23 -23 -25 -27 -27 -25 -21 -18 -10 -1 -2 -1 -15 -17 -6 -14 -9 -6 -6 -6 -7 -1 -1 2 2 1 2 3 5 6 6 7 6 7 6 6
-4 -6 -10 -13 -16 -17 -19 -20 -21 -22 -22 -23 -23 -23 -26 -28 -19 -12 -13 -1 -1 -0 -3 -7 -11 -10 -10 -9 -7 -4 2 -2 3 2 4 2 3 4 2 3 4 4 5 6 4 4 6
-2 -3 -7 -11 -14 -17 -18 -20 -21 -22 -22 -23 -24 -24 -24 -28 -3 0 2 2 5 5 4 -4 -5 -6 -12 -8 -7 -6 1 3 3 4 3 4 5 3 3 3 2 4 6 5 -1 5 6
-1 -2 -5 -8 -11 -15 -17 -19 -19 -20 -21 -22 -23 -24 -24 -25 2 7 5 6 6 1 4 -4 -5 -5 -10 -9 -7 -8 -3 1 3 5 5 6 5 1 1 2 -3 -4 -1 -3 -2 5 5
-1 -2 -3 -5 -8 -12 -15 -16 -17 -19 -20 -22 -23 -24 -24 -7 5 9 8 6 7 2 3 -0 1 -4 -6 -9 -10 -9 -5 -1 1 4 4 4 2 1 1 1 -2 -2 -5 -4 -3 5 7
-2 -2 -3 -4 -6 -9 -13 -15 -17 -18 -20 -21 -23 -24 -23 -27 1 8 7 7 4 6 -5 -8 -2 -6 -7 -10 -13 -13 -10 -1 1 2 1 3 -3 -2 0 -0 -3 -2 -4 -5 -5 -3 -4
-3 -3 -3 -5 -8 -10 -11 -14 -16 -17 -19 -20 -22 -23 -24 -23 -26 4 8 6 3 2 -0 1 -7 -12 -9 -11 -12 -5 -8 -3 -1 0 -2 -1 -5 -5 -3 -3 -2 -3 -3 -1 -1 -2 -2
-2 -2 -4 -4 -7 -11 -13 -14 -16 -17 -18 -20 -22 -23 -25 -24 -22 -18 2 5 1 2 -1 1 -7 -12 -9 -9 -11 -8 -4 -2 1 2 2 -2 -3 -5 -4 -2 -4 -1 1 4 1 3 1
-1 -2 -2 -3 -5 -9 -11 -14 -15 -17 -18 -20 -22 -23 -24 -25 -21 -26 -2 6 1 1 4 3 -1 -8 -9 -10 -10 -8 -5 -1 -3 -1 1 2 3 -3 -5 -1 -1 -1 1 5 3 3 3
-1 -2 -2 -3 -5 -8 -10 -13 -16 -17 -18 -20 -22 -24 -25 -19 -11 -21 6 7 5 5 5 4 -1 -7 -9 -9 -10 -7 -4 -3 -3 -2 -1 2 1 -4 -5 -3 -3 -1 1 -0 3 3 3
-0 -2 -2 -2 -3 -8 -10 -13 -15 -17 -19 -20 -22 -23 -19 -5 -2 2 5 4 6 5 4 4 0 -3 -6 -8 -8 -8 -6 -5 -4 -2 -4 -2 0 -5 -7 -6 -4 -2 -1 3 4 3 4
0 -3 -3 -2 -5 -8 -9 -11 -13 -16 -19 -21 -20 -8 0 1 -1 2 -2 4 5 4 2 4 4 3 -2 -0 -1 -5 -7 -8 -4 -3 -3 -2 -1 -2 -5 -4 -2 -2 1 4 2 3 4
0 -3 -4 -3 -7 -8 -9 -10 -12 -15 -19 -20 -10 -6 6 6 0 3 2 4 1 -0 -1 0 3 4 -1 3 2 -2 -4 -6 -8 -4 -2 -2 0 -0 -3 -4 -4 -3 -1 3 4 2 4
-1 -3 -3 -4 -7 -7 -8 -9 -9 -13 -19 -18 -7 -2 6 5 1 1 1 0 -0 0 -3 -2 3 1 2 2 4 2 -1 -5 -6 -4 -2 -1 0 2 -1 -2 -3 -2 -1 1 2 3 5
-1 -2 -3 -5 -7 -7 -7 -8 -8 -11 -17 -16 -2 -2 1 5 3 3 3 2 0 -2 -5 -2 -2 -3 1 3 3 3 2 -2 -5 -4 -3 -3 1 1 1 0 -1 -3 -2 1 1 3 2
-0 -1 -2 -4 -6 -6 -6 -7 -8 -9 -14 -11 -0 -2 -1 -2 0 -1 1 2 2 2 0 -1 -1 -1 0 3 4 3 2 1 -4 -4 -4 -2 -1 -1 -0 -1 -2 -3 -3 2 1 1 2
2 0 -2 -3 -5 -5 -5 -5 -7 -8 -12 -11 -1 -2 -2 -2 -2 -1 -1 2 1 0 -0 1 0 1 2 4 3 4 1 1 2 0 -2 -2 -3 -2 -0 2 -0 -1 -2 0 1 1 2
1 1 -1 -2 -5 -4 -4 -4 -6 -7 -10 -6 -1 -1 -2 -2 -2 -3 -1 -3 -1 1 -0 0 2 3 3 4 3 2 1 1 1 1 1 -1 1 1 0 -1 0 2 1 -0 1 -0 -1
2 1 -0 -1 -3 -3 -3 -4 -5 -6 -9 -6 -2 -2 -2 -3 -2 -2 -3 -2 -1 -1 1 1 1 3 3 3 1 3 3 3 2 2 1 0 -0 1 2 1 1 -1 -2 -3 -1 -1 -1
1 1 1 -0 -2 -4 -3 -4 -4 -5 -7 -11 -4 -3 -2 -2 -2 -3 -2 -2 0 -0 1 2 3 4 4 3 4 4 3 3 2 1 1 1 1 2 3 3 0 -1 -1 -2 -3 -2 -2
1 1 1 0 -1 -4 -3 -3 -4 -4 -6 -8 -12 -4 -3 -3 -4 -2 -2 -1 0 -0 -0 2 0 2 4 4 3 5 5 4 2 0 0 1 1 1 2 1 2 -0 -4 -3 -4 0 -2
1 1 0 -0 -1 -4 -4 -5 -4 -4 -6 -6 -9 -8 -4 -3 -4 -2 -1 -1 -1 -1 -0 1 -1 0 3 1 5 6 5 3 4 2 2 4 3 2 3 3 2 -1 -3 -4 -1 1 -2
0 1 -1 -0 -1 -4 -5 -6 -5 -4 -5 -6 -8 -11 -7 -4 -6 -3 -4 -4 -3 -0 0 -0 -2 2 2 4 5 5 5 3 3 1 1 3 4 3 2 1 2 -2 -4 -2 -1 -3 -2
0 -0 0 0 -2 -5 -5 -6 -5 -5 -5 -6 -7 -8 -8 -7 -8 -5 -4 -3 -4 -4 -3 -2 0 1 1 2 2 3 4 3 4 4 0 4 1 3 2 2 -1 -2 -4 -6 -5 -4 -2

GFSGBSN_850_dewp_348.txt.gz
Dewpoint
-21 -21 -22 -23 -23 -24 -24 -24 -24 -25 -25 -25 -24 -24 -23 -22 -17 -2 -1 -2 -3 -1 -1 1 -4 -21 -19 -11 -8 -6 -5 -6 -4 -0 2 -3 -2 -3 -2 1 4 5 5 6 7 8 8
-19 -20 -21 -22 -23 -23 -24 -24 -25 -25 -25 -26 -25 -25 -24 -23 -22 -16 -2 -2 -3 -4 -3 -1 -0 -22 -19 -11 -6 -6 -5 -5 -4 -3 -0 -0 0 -3 -2 -0 3 4 6 7 8 8 8
-18 -19 -20 -20 -21 -22 -23 -23 -24 -25 -25 -26 -26 -26 -26 -25 -24 -23 -17 -4 -3 -2 -5 -3 0 -21 -21 -16 -7 -5 -5 -4 -4 -4 -2 -1 -3 -2 0 3 5 5 6 5 6 7 7
-15 -17 -18 -18 -19 -19 -20 -21 -22 -22 -23 -24 -25 -26 -27 -26 -25 -23 -22 -17 -9 -7 -5 -4 -1 -21 -21 -19 -14 -5 -6 -6 -3 -2 -3 -4 -3 -1 2 4 4 5 5 8 5 6 6
-10 -13 -15 -16 -18 -19 -20 -21 -21 -22 -22 -23 -23 -24 -25 -27 -26 -24 -22 -21 -13 -5 -7 -1 -9 -21 -22 -18 -17 -11 -9 -8 -4 -3 -1 0 1 2 4 5 5 4 7 7 6 5 5
-6 -10 -13 -15 -16 -17 -18 -20 -21 -22 -22 -23 -24 -24 -24 -27 -27 -24 -21 -14 -3 -1 -1 -6 -18 -11 -18 -10 -6 -8 -8 -7 -6 -2 -2 1 2 2 4 5 7 5 6 6 6 5 6
-4 -6 -9 -12 -15 -16 -17 -19 -20 -21 -22 -23 -24 -25 -25 -27 -22 -12 -13 -2 -2 -1 -1 -7 -12 -11 -10 -9 -7 -6 -3 -1 -4 1 4 2 3 4 2 4 3 3 5 6 4 4 7
-3 -3 -4 -8 -12 -15 -17 -18 -20 -21 -21 -22 -23 -25 -25 -26 -6 -1 1 -1 4 2 1 -5 -3 -6 -16 -11 -7 -5 1 1 3 4 3 4 5 3 2 2 3 2 5 6 4 3 6
-2 -2 -3 -4 -8 -12 -15 -17 -19 -19 -20 -21 -22 -24 -26 -19 4 6 5 7 7 3 4 -4 -5 -4 -5 -12 -9 -8 -3 2 3 4 4 5 4 2 2 2 1 -4 4 2 3 6 5
-2 -3 -3 -4 -6 -10 -13 -16 -17 -18 -19 -21 -22 -24 -26 -10 3 7 7 7 7 3 0 -3 1 -4 -5 -9 -8 -11 -5 -1 2 5 5 4 3 3 2 2 0 -1 -5 -5 1 6 7
-1 -2 -3 -4 -5 -7 -11 -14 -16 -17 -18 -20 -21 -23 -25 -24 -19 7 7 7 4 6 -8 -13 0 -5 -7 -10 -13 -11 -10 -1 2 3 3 5 -1 -1 2 1 -3 -1 -5 -5 -5 1 -4
-0 -2 -2 -4 -5 -8 -12 -13 -14 -16 -17 -19 -20 -22 -24 -25 -23 -9 7 6 3 -1 -9 -1 -3 -10 -9 -10 -11 -5 -8 -4 -0 -0 -2 3 -3 -5 -3 -3 -3 -4 -3 -1 -1 -2 -1
-0 -1 -2 -3 -4 -6 -10 -13 -14 -15 -17 -18 -19 -21 -24 -25 -24 -21 1 6 2 -1 -5 0 -2 -9 -9 -8 -11 -6 -4 -1 1 2 2 -1 -2 -5 -3 -2 -3 -2 1 4 3 3 2
-0 -1 -2 -2 -3 -4 -8 -11 -14 -15 -16 -18 -20 -21 -24 -25 -24 -23 -4 5 1 -1 1 2 0 -2 -9 -10 -10 -10 -5 -1 -2 -1 2 2 2 -2 -5 -2 -1 -1 1 4 4 2 1
0 -1 -1 -2 -2 -4 -6 -10 -13 -15 -17 -18 -20 -22 -23 -20 -15 -21 6 7 4 3 4 5 0 -5 -9 -10 -10 -7 -7 -5 -1 -2 -1 1 1 -3 -5 -2 -3 -1 2 -0 3 3 4
0 0 -1 -1 -2 -3 -6 -10 -13 -15 -17 -19 -21 -22 -12 -2 -5 -4 4 3 5 4 4 4 0 -3 -5 -5 -9 -9 -6 -5 -5 -2 -4 -2 -1 -4 -6 -5 -3 -1 -1 3 3 3 4
-1 -0 0 -2 -2 -2 -7 -9 -11 -14 -16 -19 -20 -10 3 3 -2 2 -3 -0 4 3 4 4 5 5 -2 2 1 -6 -8 -8 -5 -3 -4 -1 -1 -3 -5 -3 -2 0 2 3 2 3 4
1 -1 -0 -2 -3 -3 -8 -9 -11 -13 -16 -19 -13 -12 5 4 -0 1 -2 1 2 -0 -1 -1 3 4 1 3 3 -1 -4 -6 -6 -3 -2 -2 -0 -0 -3 -4 -4 -3 0 2 4 2 3
1 -1 0 -2 -4 -4 -8 -9 -10 -12 -16 -18 -10 -3 3 5 0 1 1 0 -1 -0 -1 -4 2 1 -0 2 3 3 -0 -2 -4 -4 -2 -2 -1 1 -1 -2 -3 -2 -1 2 2 3 4
1 0 -0 -2 -4 -5 -8 -8 -9 -10 -15 -17 -5 -3 2 5 3 1 2 1 -1 -1 -2 -6 -2 -4 -4 2 2 3 3 0 -2 -4 -2 -4 -0 -0 0 -1 -1 -3 -1 1 0 3 3
2 1 -1 -2 -3 -6 -7 -7 -8 -9 -13 -13 -2 -2 -1 2 1 0 1 2 2 1 0 -0 -1 1 1 0 3 4 1 2 -1 -1 -3 -2 -1 -1 -1 -3 -2 -2 -2 2 1 0 1
1 2 -1 -2 -3 -6 -7 -7 -7 -8 -11 -13 -1 -1 -2 -2 -2 -1 -1 1 2 1 0 0 2 2 2 3 4 4 2 1 2 1 0 -1 -3 -1 -1 -0 -1 -2 -3 1 1 1 1
1 2 1 -1 -2 -5 -6 -6 -6 -7 -10 -10 -1 -1 -2 -2 -2 -2 -2 -3 -0 -0 -0 1 1 2 3 5 4 3 3 3 2 2 3 1 1 0 -1 -1 1 2 0 -1 0 -0 -0
1 1 1 -0 -2 -4 -5 -5 -5 -6 -8 -9 -2 -2 -3 -3 -3 -3 -3 -2 -2 -1 -0 -1 1 2 3 3 2 2 4 4 4 3 2 3 1 1 2 1 1 -1 -2 -2 -1 -1 -1
1 1 2 1 -1 -3 -5 -4 -5 -5 -7 -11 -3 -2 -2 -3 -2 -3 -3 -1 -0 -1 1 1 3 3 2 4 3 3 3 3 3 3 2 1 1 1 2 3 -1 -2 -1 -2 -1 -1 -2
1 1 1 1 -1 -2 -4 -4 -4 -5 -5 -8 -10 -4 -4 -4 -4 -2 -3 -1 -1 -1 -1 0 -1 -1 4 3 1 4 4 4 3 2 1 3 1 1 2 -1 -0 -1 -4 -3 -4 -0 -4
0 1 1 0 0 -1 -3 -3 -3 -4 -5 -7 -10 -7 -4 -6 -3 -2 -2 -2 -1 -1 -1 -0 -2 -0 2 2 4 4 4 3 5 2 4 4 3 3 2 2 0 -2 -3 -4 1 1 -4
1 1 1 1 0 -1 -3 -4 -4 -5 -4 -6 -8 -11 -6 -7 -6 -3 -3 -3 -3 -1 -2 -1 -2 0 1 2 4 3 3 4 5 3 2 4 4 2 2 1 2 -3 -3 -2 -3 -4 -3
0 0 1 1 1 -1 -3 -4 -5 -5 -4 -5 -6 -9 -11 -10 -9 -7 -8 -7 -5 -4 -4 -2 -0 -1 1 1 1 1 4 3 4 5 2 3 2 3 3 2 -2 -2 -3 -4 -5 -5 -4